Regional Weather Roundup
Issued by NWS Newport/Morehead, NC

Current Version | Previous Version | Graphics & Text | Print | Product List | Glossary Off
Versions: 1 2 3 4 5 6 7 8 9 10 11 12 13 14 15 16 17 18 19 20 21 22 23 24 25 26 27 28 29 30 31 32 33 34 35 36 37 38 39 40 41 42 43 44 45 46 47 48 49 50

000
ASUS42 KMHX 030113
RWRMHX
WEATHER ROUNDUP FOR EASTERN NORTH CAROLINA
NATIONAL WEATHER SERVICE NEWPORT/MOREHEAD CITY NC
900 PM EDT WED SEP 02 2015

NOTE: "FAIR" INDICATES FEW OR NO CLOUDS BELOW 12,000 FEET
WITH NO SIGNIFICANT WEATHER AND/OR OBSTRUCTIONS TO VISIBILITY

NCZ015>017-031-032-045>047-102-103-030200-
NORTH COAST

CITY           SKY/WX    TMP DP  RH WIND       PRES   REMARKS
EDENTON        MOCLDY    73  66  78 E10       29.97F
ELIZABETH CITY LGT RAIN  71  68  90 W5        29.96S
KITTY HAWK     PTCLDY    79  72  80 CALM      29.95R
MANTEO         PTCLDY    80  74  81 SW9       29.95S

$$

NCZ045>047-081-094-103-104-030200-
CENTRAL COAST

CITY           SKY/WX    TMP DP  RH WIND       PRES   REMARKS
FRISCO         CLEAR     75  71  87 CALM      29.97R
SWANQUARTER      N/A     81 N/A N/A S8        29.91S

$$

NCZ095-097-098-100-101-030200-
SOUTHERN COAST

CITY           SKY/WX    TMP DP  RH WIND       PRES   REMARKS
BEAUFORT       PTCLDY    79  75  87 SW6       29.96S
CEDAR ISLAND     N/A     79 N/A N/A S3        30.00S
JACKSONVILLE   PTCLDY    79  73  82 S3        29.95R
PINEY ISLAND   CLEAR    N/A N/A N/A S5        29.96R
WILMINGTON     PTCLDY    81  73  76 SW7       29.96R


$$

NCZ011>013-027>030-043-044-078>080-089-090>093-098-030200-
COASTAL PLAIN

CITY           SKY/WX    TMP DP  RH WIND       PRES   REMARKS
AHOSKIE        HVY RAIN  69  67  93 SE7       29.98F
CLINTON        PTCLDY    78  73  84 CALM      29.95S
ELIZABETHTOWN  MOCLDY    82  72  73 S3        29.96R
GOLDSBORO      NOT AVBL
GREENVILLE     CLEAR     79  73  83 CALM      29.96S
HAVELOCK       PTCLDY    79  74  84 S5        29.97R
KENANSVILLE      N/A     76  74  93 CALM      29.96S
KINSTON        CLEAR     77  73  88 CALM      29.95S
NEW BERN       CLEAR     79  74  84 S5        29.97R
RICHLANDS      PTCLDY    79  70  73 CALM      29.96R
ROCKY MOUNT    PTCLDY    78  71  79 S3        29.94S
WASHINGTON     CLEAR     78  72  80 SE5       29.95R
WHITEVILLE     PTCLDY    80  74  83 CALM      29.96R

$$

AMZ130-135-150-152-154-156-158-170-250-252-270-ANZ085-086-088-633-658-670-030200-
MARINE OBSERVATIONS

STATION/POSITION TIME  TEMP    WIND        PRES    WAVE   SWELL
                       AIR SEA DIR/SP/G            HT/PER HT/PER
                 (UTC) (F)     (DEG/KT/KT) (MB)    (FT/S) (FT/S)
CHESAPEAKE LIGHT 0100   77     250/ 11/ 12 1014.5
64 E VA BEACH    0050   80 80  230/ 10/ 12 1013.6    2/ 9   2/ 9
DUCK             0000   81 78  310/ 11/ 15 1013.4
2 E DUCK         0011      81                N/A     1/13
OREGON INLET     0000   81 82  200/  5/  6 1014.1
13E OREGON INLT  0100      80                N/A     1/14
HATTERAS CG      0000   81 83  230/  2/  3 1014.2
DIAMOND BUOY     0050   81 86  330/  2/  4 1014.8    2/ 8   2/ 8
CAPE LOOKOUT     0100   81     230/  4/  5 1014.5
BEAUFORT LAB     0000   81 82  210/  4/  6 1013.8
30 SE NEW RVR IN 0008   82 83  240/  8/ 10 1014.7
30 SE NEW RVR IN 0025      83                N/A     2/ 9
27 SE WRIGHTSVLE 0000   79 82  250/ 10/ 12   N/A
5 SE WRIGHTSVLE  0008   83 82  230/ 12/ 16 1014.1
225 S CAPE HAT   0050   83 84  280/  8/  8 1015.1    2/ 8   2/ 8
41 SE CHARLESTON 0050   82 84  210/  6/  6 1015.2    2/ 8   2/ 8

$$



USA.gov is the U.S. government's official web portal to all federal, state and local government web resources and services.